Weather History for Saint-Yan, France

Change the Weather History Date:

Saturday, February 9, 2013

  Actual Average (LFLC) Record (LFLC)
Temperature  
Mean Temperature 28 °F -  
Max Temperature 33 °F 48 °F 62 °F (1998)
Min Temperature 19 °F 32 °F 3 °F (2012)
Degree Days  
Heating Degree Days 37    
Moisture  
Dew Point 29 °F    
Average Humidity 97    
Maximum Humidity 100    
Minimum Humidity 87    
Precipitation  
Precipitation 0.00 in - - ()
Sea Level Pressure  
Sea Level Pressure 30.07 in    
Wind  
Wind Speed 3 mph ()    
Max Wind Speed 8 mph    
Max Gust Speed -    
Visibility 1.3 miles    
Events Fog , Rain , Snow    
Averages and records for this station are not official NWS values.
T = Trace of Precipitation, MM = Missing Value Source: Averaged Metar Reports

Daily Weather History Graph

Daily Weather History Graph

Search for Another Location

Airport:

Trip Planner

Search our weather history database for the weather conditions in past years. The results will help you decide how hot, cold, wet, or windy it might be!

Date:

Astronomy

Feb. 09, 2013 Rise Set
Actual Time 7:56 AM CET 6:00 PM CET
Civil Twilight 7:25 AM CET 6:31 PM CET
Nautical Twilight 6:49 AM CET 7:07 PM CET
Astronomical Twilight 6:14 AM CET 7:42 PM CET
Moon 6:57 AM CET (2/9) 5:26 PM CET (2/9)
Length of Visible Light 11h 06m
Length of Day
10h 04m
Waning Crescent, 1% of the Moon is Illuminated
Feb 9
Waning Crescent
Feb 10
New
Feb 17
First Quarter
Feb 25
Full
Mar 4
Last Quarter

Hourly Weather History & Observations

Time (CET) Temp. Windchill Dew Point Humidity Pressure Visibility Wind Dir Wind Speed Gust Speed Precip Events Conditions
12:00 AM 28.4 °F 23.3 °F 26.6 °F 93% 30.09 in 1.4 mi NNW 4.6 mph - N/A   Mostly Cloudy
12:30 AM 28.4 °F - 26.6 °F 93% 30.09 in 0.1 mi WNW 2.3 mph - N/A Fog Light Freezing Fog
1:00 AM 30.2 °F 22.6 °F 30.2 °F 100% 30.09 in 3.7 mi NNW 8.1 mph - N/A   Overcast
1:30 AM 26.6 °F 21.2 °F 26.6 °F 100% 30.09 in 1.2 mi NW 4.6 mph - N/A   Overcast
2:00 AM 26.6 °F 22.6 °F 26.6 °F 100% 30.09 in 0.1 mi Variable 3.5 mph - N/A Fog Light Freezing Fog
2:30 AM 28.4 °F 24.6 °F 28.4 °F 100% 30.09 in 0.4 mi NNW 3.5 mph - N/A Fog Light Freezing Fog
3:00 AM 28.4 °F - 28.4 °F 100% 30.09 in 0.1 mi Calm Calm - N/A Fog Light Freezing Fog
3:30 AM 30.2 °F - 30.2 °F 100% 30.09 in 1.3 mi Variable 2.3 mph - N/A   Overcast
4:00 AM 30.2 °F 26.7 °F 30.2 °F 100% 30.09 in - North 3.5 mph - N/A   Overcast
4:30 AM 30.2 °F - 30.2 °F 100% 30.09 in - Variable 2.3 mph - N/A   Overcast
5:00 AM 30.2 °F - 30.2 °F 100% 30.09 in 3.7 mi Variable 2.3 mph - N/A   Overcast
5:30 AM 30.2 °F 25.4 °F 30.2 °F 100% 30.09 in 3.7 mi North 4.6 mph - N/A   Overcast
6:00 AM 30.2 °F - 30.2 °F 100% 30.09 in 4.3 mi Variable 1.2 mph - N/A   Overcast
6:30 AM 28.4 °F - 28.4 °F 100% 30.09 in 3.1 mi NNW 2.3 mph - N/A   Mist
7:00 AM 28.4 °F - 28.4 °F 100% 30.09 in - NW 2.3 mph - N/A   Mostly Cloudy
7:30 AM 28.4 °F - 28.4 °F 100% 30.09 in - NW 2.3 mph - N/A   Mostly Cloudy
8:00 AM 28.4 °F - 28.4 °F 100% 30.09 in 1.6 mi Calm Calm - N/A   Overcast
8:30 AM 30.2 °F - 30.2 °F 100% 30.09 in 0.9 mi Calm Calm - N/A Snow Light Snow
9:00 AM 30.2 °F - 30.2 °F 100% 30.09 in 0.9 mi Calm Calm - N/A Snow Light Snow
9:30 AM 32.0 °F - 32.0 °F 100% 30.09 in 0.7 mi Calm Calm - N/A Snow Light Snow
10:00 AM 32.0 °F - 30.2 °F 93% 30.09 in 0.8 mi Variable 2.3 mph - N/A Snow Light Snow
10:30 AM 32.0 °F - 32.0 °F 100% 30.09 in 1.2 mi SSE 2.3 mph - N/A Snow Light Snow
11:00 AM 32.0 °F 28.7 °F 30.2 °F 93% 30.09 in 0.7 mi South 3.5 mph - N/A Snow Light Snow
11:30 AM 32.0 °F 27.5 °F 30.2 °F 93% 30.09 in - South 4.6 mph - N/A Fog , Snow Snow
12:00 PM 32.0 °F 27.5 °F 30.2 °F 93% 30.09 in 0.5 mi South 4.6 mph - N/A Fog , Snow Snow
12:30 PM 32.0 °F 28.7 °F 30.2 °F 93% 30.09 in 0.5 mi Variable 3.5 mph - N/A Fog , Snow Snow
1:00 PM 32.0 °F 27.5 °F 30.2 °F 93% 30.09 in 1.2 mi SE 4.6 mph - N/A Snow Light Snow
1:30 PM 32.0 °F 28.7 °F 30.2 °F 93% 30.06 in 0.7 mi SSE 3.5 mph - N/A Snow Light Snow
2:00 PM 32.0 °F 28.7 °F 30.2 °F 93% 30.06 in 0.9 mi Variable 3.5 mph - N/A Snow Light Snow
2:30 PM 33.8 °F 30.8 °F 30.2 °F 87% 30.06 in 0.6 mi South 3.5 mph - N/A Fog , Snow Snow
3:00 PM 33.8 °F - 30.2 °F 87% 30.06 in 1.6 mi Variable 1.2 mph - N/A Snow Light Snow
3:30 PM 33.8 °F - 30.2 °F 87% 30.06 in 1.4 mi Variable 2.3 mph - N/A Snow Light Snow
4:00 PM 32.0 °F - 30.2 °F 93% 30.04 in 2.2 mi Calm Calm - N/A Snow Light Snow
4:30 PM 32.0 °F - 30.2 °F 93% 30.04 in 1.4 mi Calm Calm - N/A Rain Rain
5:00 PM 32.0 °F - 30.2 °F 93% 30.04 in 1.4 mi Calm Calm - N/A Snow Light Snow
5:30 PM 32.0 °F - 30.2 °F 93% 30.04 in 0.8 mi Variable 2.3 mph - N/A Snow Light Snow
6:00 PM 32.0 °F 28.7 °F 30.2 °F 93% 30.04 in 0.3 mi NE 3.5 mph - N/A Fog , Snow Snow
6:30 PM 30.2 °F 26.7 °F 30.2 °F 100% 30.04 in 1.8 mi ENE 3.5 mph - N/A   Overcast
7:00 PM 30.2 °F - 30.2 °F 100% 30.04 in 3.1 mi Variable 2.3 mph - N/A   Overcast
7:30 PM 30.2 °F - 30.2 °F 100% 30.06 in - Variable 1.2 mph - N/A   Overcast
8:00 PM 28.4 °F 24.6 °F 28.4 °F 100% 30.04 in 1.1 mi NNE 3.5 mph - N/A   Mostly Cloudy
8:30 PM 28.4 °F 24.6 °F 26.6 °F 93% 30.04 in 1.3 mi Variable 3.5 mph - N/A   Partly Cloudy
9:00 PM 23.0 °F 18.4 °F 23.0 °F 100% 30.04 in 0.3 mi Variable 3.5 mph - N/A Fog Light Freezing Fog
9:30 PM 23.0 °F - 23.0 °F 100% 30.04 in 0.0 mi Variable 2.3 mph - N/A Fog Light Freezing Fog
10:00 PM 24.8 °F - 24.8 °F 100% 30.04 in 0.7 mi Variable 1.2 mph - N/A   Overcast
10:30 PM 26.6 °F - 26.6 °F 100% 30.04 in 1.1 mi NE 2.3 mph - N/A   Scattered Clouds
11:00 PM 24.8 °F - 24.8 °F 100% 30.04 in 0.1 mi NE 2.3 mph - N/A Fog Light Freezing Fog
11:30 PM 19.4 °F - 17.6 °F 93% 30.04 in 0.0 mi Calm Calm - N/A Fog Light Freezing Fog